Location: Archemont
(49.1579°N, 1.7598°E)
Time: 09:14:13
(UTC+00:00)

Altair - Pass Details

Date: 17 April 2024
Orbit: 1501 x 1682 km, 47.2° (Epoch: 17 May)

Event Time Altitude Azimuth Distance (km) Brightness Sun altitude
Rises 22:48:20 0° 272° (W) 4,868 10.4 -28.3°
Reaches altitude 10° 22:51:30 10° 271° (W) 3,859 9.8 -28.5°
Maximum altitude 23:01:19 79° 187° (S) 1,608 7.3 -28.9°
Enters shadow 23:08:04 22° 104° (ESE) 2,888 8.7 -29.1°
Drops below altitude 10° 23:10:44 10° 103° (ESE) 3,714 - -29.2°
Sets 23:13:44 0° 102° (ESE) 4,677 - -29.3°
